Location: Newark
(45.8667°N, 9.7333°E)
Time: 00:56:22
(UTC+00:00)

AO-73 - Pass Details

Date: 27 February 2020
Orbit: 582 x 663 km, 97.6° (Epoch: 01 April)

Event Time Altitude Azimuth Distance (km) Brightness Sun altitude
Rises 04:32:53 0° 26° (NNE) 3,007 ? -16.7°
Reaches altitude 10° 04:35:39 10° 43° (NE) 2,082 ? -16.3°
Maximum altitude 04:39:03 21° 91° (E) 1,485 ? -15.7°
Drops below altitude 10° 04:42:24 10° 140° (SE) 2,044 ? -15.1°
Sets 04:45:04 0° 157° (SSE) 2,934 ? -14.6°
